Weather History for Houston Hull, TX

Change the Weather History Date:

Monday, February 3, 2014

  Actual Average Record
Temperature  
Mean Temperature 45 °F -  
Max Temperature 51 °F 61 °F 81 °F (1974)
Min Temperature 39 °F 41 °F 12 °F (1951)
Degree Days  
Heating Degree Days 20    
Moisture  
Dew Point 40 °F    
Average Humidity 83    
Maximum Humidity 89    
Minimum Humidity 74    
Precipitation  
Precipitation 0.00 in - - ()
Sea Level Pressure  
Sea Level Pressure 30.13 in    
Wind  
Wind Speed 10 mph (NE)    
Max Wind Speed 16 mph    
Max Gust Speed 22 mph    
Visibility 9 miles    
Events      
Averages and records for this station are not official NWS values.
T = Trace of Precipitation, MM = Missing Value Source: NWS Daily Summary

Daily Weather History Graph

Daily Weather History Graph

Search for Another Location

Airport:

Trip Planner

Search our weather history database for the weather conditions in past years. The results will help you decide how hot, cold, wet, or windy it might be!

Date:

Astronomy

Feb. 03, 2014 Rise Set
Actual Time 7:11 AM CST 6:02 PM CST
Civil Twilight 6:46 AM CST 6:27 PM CST
Nautical Twilight 6:17 AM CST 6:55 PM CST
Astronomical Twilight 5:49 AM CST 7:23 PM CST
Moon 9:37 AM CST (2/3) 10:27 PM CST (2/3)
Length of Visible Light 11h 40m
Length of Day
10h 51m
Waxing Crescent, 20% of the Moon is Illuminated
Feb 3
Waxing Crescent
Feb 6
First Quarter
Feb 14
Full
Feb 22
Last Quarter
Mar 1
New

Hourly Weather History & Observations

Time (CST) Temp. Windchill Dew Point Humidity Pressure Visibility Wind Dir Wind Speed Gust Speed Precip Events Conditions
12:53 AM 39.9 °F 32.9 °F 37.0 °F 89% 30.17 in 10.0 mi North 11.5 mph - N/A   Overcast
1:53 AM 39.9 °F 32.5 °F 37.0 °F 89% 30.18 in 10.0 mi North 12.7 mph - N/A   Overcast
2:53 AM 39.9 °F 32.9 °F 36.0 °F 86% 30.18 in 10.0 mi North 11.5 mph - N/A   Overcast
3:38 AM 39.9 °F 32.9 °F 36.0 °F 86% 30.17 in 10.0 mi North 11.5 mph 21.9 mph N/A   Overcast
3:53 AM 39.0 °F 31.8 °F 36.0 °F 89% 30.18 in 10.0 mi North 11.5 mph - N/A   Overcast
4:53 AM 39.0 °F 31.0 °F 36.0 °F 89% 30.17 in 10.0 mi NNE 13.8 mph - N/A   Overcast
5:53 AM 39.0 °F 30.3 °F 36.0 °F 89% 30.17 in 10.0 mi NNE 16.1 mph - N/A   Overcast
6:53 AM 39.9 °F 31.8 °F 37.0 °F 89% 30.20 in 10.0 mi NNE 15.0 mph - N/A   Overcast
7:53 AM 39.9 °F 32.9 °F 37.0 °F 89% 30.22 in 7.0 mi North 11.5 mph - N/A   Overcast
8:53 AM 39.9 °F 32.9 °F 37.0 °F 89% 30.22 in 6.0 mi NNE 11.5 mph - N/A   Overcast
9:53 AM 39.9 °F 33.9 °F 37.0 °F 89% 30.23 in 6.0 mi NNE 9.2 mph - N/A   Overcast
10:53 AM 42.1 °F 36.1 °F 37.9 °F 85% 30.22 in 6.0 mi NNE 10.4 mph - N/A   Overcast
11:53 AM 43.0 °F 38.8 °F 39.0 °F 86% 30.20 in 8.0 mi NE 6.9 mph - 0.00 in   Overcast
12:53 PM 45.0 °F 41.2 °F 39.9 °F 82% 30.16 in 8.0 mi NNE 6.9 mph - N/A   Overcast
1:14 PM 45.0 °F 41.2 °F 39.9 °F 82% 30.15 in 8.0 mi North 6.9 mph - N/A   Overcast
1:53 PM 46.0 °F 41.9 °F 39.9 °F 79% 30.13 in 8.0 mi North 8.1 mph - N/A   Overcast
2:53 PM 48.0 °F - 41.0 °F 77% 30.10 in 10.0 mi ENE 6.9 mph - N/A   Overcast
3:19 PM 48.0 °F - 41.0 °F 77% 30.08 in 10.0 mi East 10.4 mph - N/A   Overcast
3:53 PM 50.0 °F - 42.1 °F 74% 30.06 in 10.0 mi ENE 15.0 mph - N/A   Overcast
4:53 PM 50.0 °F - 42.1 °F 74% 30.07 in 10.0 mi NE 6.9 mph - N/A   Overcast
5:53 PM 50.0 °F - 42.1 °F 74% 30.05 in 10.0 mi East 6.9 mph - N/A   Overcast
6:53 PM 51.1 °F - 43.0 °F 74% 30.06 in 10.0 mi East 3.5 mph - N/A   Overcast
7:53 PM 48.9 °F - 43.0 °F 80% 30.07 in 10.0 mi SE 9.2 mph - N/A   Overcast
8:53 PM 48.9 °F - 42.1 °F 77% 30.08 in 10.0 mi ESE 6.9 mph - N/A   Overcast
9:53 PM 48.9 °F - 43.0 °F 80% 30.07 in 10.0 mi ESE 3.5 mph - N/A   Overcast
10:53 PM 48.9 °F - 43.0 °F 80% 30.05 in 10.0 mi SE 4.6 mph - N/A   Overcast
11:48 PM 48.2 °F - 44.6 °F 87% 30.01 in 10.0 mi SE 3.5 mph - N/A   Overcast
11:53 PM 48.0 °F - 44.1 °F 86% 30.02 in 10.0 mi SSE 4.6 mph - N/A   Overcast